Regional Weather Roundup
Issued by NWS

Home | Current Version | Previous Version | Text Only | Print | Product List | Glossary Off
Versions: 1 2 3 4 5 6 7 8 9 10 11 12 13 14 15 16 17 18 19 20 21 22 23 24 25 26 27 28 29 30 31 32 33 34 35 36 37 38 39 40 41 42 43 44 45 46 47 48 49 50

000
ASUS45 KABQ 261701
RWRNM
NEW MEXICO REGIONAL WEATHER ROUNDUP
NATIONAL WEATHER SERVICE ALBUQUERQUE NM
1100 AM MDT THU MAY 26 2016

NOTE: "FAIR" MEANS FEW OR NO CLOUDS BELOW 12,000 FEET AGL WITH NO
       SIGNIFICANT WEATHER OR OBSTRUCTIONS TO VISION.

      THIS PRODUCT IS RELEASED AS TWO VERSIONS.  ONE VERSION NEAR
      THE TOP OF THE HOUR CONTAINING PRELIMINARY DATA FROM ALBUQUERQUE
      AND OTHER STATIONS.  A FINAL VERSION WITH ADDITIONAL DATA IS
      ISSUED ABOUT 10 MINUTES AFTER THE HOUR.

NMZ501-503-504-510>518-261800-
NORTHWEST PLATEAU/NORTHCENTRAL MOUNTAINS

CITY           SKY/WX    TMP DP  RH WIND       PRES   REMARKS
FARMINGTON     FAIR      63  20  19 VRB5      29.94F
SANTA FE       FAIR      68  17  14 SW13G24   29.95F
TAOS           FAIR      63  23  22 CALM      29.95F

$$
NMZ402-403-502-505>509-261800-
WESTCENTRAL MOUNTAINS/SOUTHWEST MOUNTAINS

CITY           SKY/WX    TMP DP  RH WIND       PRES   REMARKS
GALLUP         FAIR      58  16  19 W20       30.03F
GRANTS         FAIR      60  13  15 SW9G21    30.02F
SILVER CITY      N/A     64  16  15 NW15G24   30.04F

$$
NMZ407-409-411-412-261800-
SOUTHERN DESERTS

CITY           SKY/WX    TMP DP  RH WIND       PRES   REMARKS
LORDSBURG      FAIR      70  23  17 W12G20    30.00F
DEMING         FAIR      71  21  15 W16G32    29.99F
HOLLOMAN AFB   FAIR      77  20  12 SW13G26   29.94F
ALAMOGORDO     FAIR      75  18  11 SW17G31   29.96F
T OR C         FAIR      72  13  10 SW13G20   29.94F

$$
NMZ519>523-261800-
CENTRAL VALLEYS/CENTRAL HIGHLANDS

CITY           SKY/WX    TMP DP  RH WIND       PRES   REMARKS
ALBUQUERQUE    FAIR      67  19  16 S8        29.95F
DOUBLE EAGLE   MOSUNNY   66  21  18 SW5       29.97F
CLINES CORNERS FAIR      64  15  15 SW23G33   29.98F
BELEN          FAIR      70  13  11 W13       29.94F
SOCORRO        NOT AVBL

$$
NMZ524>526-539-540-261800-
SOUTHCENTRAL MOUNTAINS

CITY           SKY/WX    TMP DP  RH WIND       PRES   REMARKS
RUIDOSO        NOT AVBL

$$
NMZ527>531-261800-
NORTHEAST HIGHLANDS/NORTHEAST PLAINS

CITY           SKY/WX    TMP DP  RH WIND       PRES   REMARKS
LAS VEGAS      FAIR      67   7   9 SW20G26   29.95F
RATON          FAIR      71  24  17 SE13G21   29.89F
CLAYTON        FAIR      74  29  19 VRB3      29.87F

$$
NMZ532>537-261800-
EASTCENTRAL PLAINS

CITY           SKY/WX    TMP DP  RH WIND       PRES   REMARKS
TUCUMCARI      FAIR      83  15   8 SW23G30   29.83F
CANNON AFB     NOT AVBL
CLOVIS AIRPORT FAIR      81  28  15 W13G24    29.89S

$$
NMZ028-029-538-261800-
SOUTHEAST PLAINS

CITY           SKY/WX    TMP DP  RH WIND       PRES   REMARKS
ROSWELL        FAIR      84  23  10 S15       29.87F
ARTESIA        FAIR      84  25  11 W17G32    29.88F
CARLSBAD       FAIR      86  30  13 S9        29.86F
HOBBS          SUNNY     84  27  12 SW14G20   29.90F


$$




USA.gov is the U.S. government's official web portal to all federal, state and local government web resources and services.